Regional Weather Roundup
Issued by NWS Jackson, KY

Home | Current Version | Previous Version | Graphics & Text | Print | Product List | Glossary On
Versions: 1 2 3 4 5 6 7 8 9 10 11 12 13 14 15 16 17 18 19 20 21 22 23 24 25 26 27 28 29 30 31 32 33 34 35 36 37 38 39 40 41 42 43 44 45 46 47 48 49 50
000
ASUS43 KJKL 281010
RWRJKL

EAST KENTUCKY HOURLY WEATHER ROUNDUP
NATIONAL WEATHER SERVICE JACKSON KY
600 AM EDT THU MAY 28 2015

NOTE: "FAIR" INDICATES FEW OR NO CLOUDS BELOW 12,000 FEET WITH
NO SIGNIFICANT WEATHER AND/OR OBSTRUCTIONS TO VISIBILITY.

* THESE REPORTS ARE NOT UNDER NWS QUALITY CONTROL AND MAY NOT
  REPORT WEATHER SUCH AS PRECIPITATION AND FOG.

KYZ079-080-083-085-087-088-110-112-115-119-120-281100
...EASTERN KENTUCKY...

CITY           SKY/WX    TMP DP  RH WIND       PRES   REMARKS
JACKSON        CLEAR     63  59  87 CALM      30.22R
LONDON         CLOUDY    62  57  83 CALM      30.21R
SOMERSET*      CLOUDY    59  59 100 CALM      30.21R
MONTICELLO*    CLOUDY    62  62 100 CALM      30.22R
MIDDLESBORO*   FOG       64  64 100 CALM      30.22S VSB 1
HARLAN APT*    CLOUDY    63  63 100 CALM      30.23R VSB 1/2
HAZARD APT*    SUNNY     63  63 100 CALM      30.22R
BLACK MTN*       N/A     61  59  94 CALM        N/A
PIKEVILLE APT* RAIN      64  63  94 N6        30.22R
BIG SANDY*     RAIN      63  62  96 CALM      30.22R
MOREHEAD APT*  PTSUNNY   61  61 100 CALM      30.23
$$

KYZ035-036-041-042-044-050-067-078-099-281100
...CENTRAL KENTUCKY...

CITY           SKY/WX    TMP DP  RH WIND       PRES   REMARKS
MT STERLING*   CLOUDY    59  59 100 CALM      30.23R
FLEMING/MASON* CLEAR     59  59 100 S6        30.22R
DANVILLE*      CLOUDY    61  61 100 CALM      30.22R
RICHMOND*      CLOUDY    59  57  94 CALM      30.21R
LEXINGTON      CLOUDY    60  59  96 S7        30.20R
FRANKFORT      CLOUDY    60  59  96 CALM      30.19R
$$

KYZ091>093-OHZ055-061-077-WVZ005-015-034-035-042-281100
...SOUTHERN OHIO/WEST VIRGINIA...

CITY           SKY/WX    TMP DP  RH WIND       PRES   REMARKS
COVINGTON      CLOUDY    64  62  93 VRB5      30.19R FOG
COLUMBUS       MOCLDY    64  60  87 CALM      30.17R
DAYTON         MOCLDY    63  62  97 SW5       30.19R FOG
WILMINGTON     MOCLDY    61  58  90 CALM      30.18R
HUNTINGTON     MOCLDY    61  60  97 SE3       30.19R
CHARLESTON     MOCLDY    64  62  93 CALM      30.20R
PINEVILLE*     CLOUDY    61  61 100 MISG      30.29R
BECKLEY        CLOUDY    61  58  90 CALM      30.27R
BLUEFIELD      MOCLDY    63  55  75 SW6       30.28R
$$

VAZ002-007-008-TNZ017-027-036-066-071-281100
...SOUTHWEST VIRGINIA/EAST TENNESSEE...

CITY           SKY/WX    TMP DP  RH WIND       PRES   REMARKS
WISE*          MOCLDY    64  55  72 CALM      30.28S
JONESVILLE*    PTSUNNY   61  61 100 CALM      30.24S
ABINGDON*      MOCLDY    64  62  93 CALM      30.25R
BRISTOL        MOCLDY    64  62  93 CALM      30.23R
KNOXVILLE      CLOUDY    68  62  81 N3        30.17S
OAK RIDGE      CLOUDY    68  66  93 CALM      30.20R
CROSSVILLE     CLOUDY    65  62  90 CALM      30.23R
NASHVILLE      LGT RAIN  67  66  97 CALM      30.18R
$$

...KEY TO REMARKS...
VSB - VISIBILITY IN MILES
WCI - WIND CHILL INDEX
HX  - HEAT INDEX

$$



USA.gov is the U.S. government's official web portal to all federal, state and local government web resources and services.